Year,Month,Day,Hour,Minute,Value (Times are PST for temperature in C)
2018,07,24,00,00,18.00
2018,07,24,00,01,18.10
2018,07,24,00,02,18.10
2018,07,24,00,03,18.10
2018,07,24,00,04,18.10
2018,07,24,00,05,18.10
2018,07,24,00,06,18.10
2018,07,24,00,07,18.10
2018,07,24,00,08,18.10
2018,07,24,00,09,18.20
2018,07,24,00,10,18.20
2018,07,24,00,11,18.20
2018,07,24,00,12,18.20
2018,07,24,00,13,18.20
2018,07,24,00,14,18.20
2018,07,24,00,15,18.20
2018,07,24,00,16,18.20
2018,07,24,00,17,18.20
2018,07,24,00,18,18.20
2018,07,24,00,19,18.20
2018,07,24,00,20,18.10
2018,07,24,00,21,18.10
2018,07,24,00,22,18.10
2018,07,24,00,23,18.10
2018,07,24,00,24,18.10
2018,07,24,00,25,18.10
2018,07,24,00,26,18.00
2018,07,24,00,27,18.00
2018,07,24,00,28,17.90
2018,07,24,00,29,17.90
2018,07,24,00,30,17.90
2018,07,24,00,31,17.80
2018,07,24,00,32,17.80
2018,07,24,00,33,17.80
2018,07,24,00,34,17.80
2018,07,24,00,35,17.70
2018,07,24,00,36,17.70
2018,07,24,00,37,17.70
2018,07,24,00,38,17.70
2018,07,24,00,39,17.70
2018,07,24,00,40,17.70
2018,07,24,00,41,17.60
2018,07,24,00,42,17.60
2018,07,24,00,43,17.70
2018,07,24,00,44,17.70
2018,07,24,00,45,17.70
2018,07,24,00,46,17.70
2018,07,24,00,47,17.70
2018,07,24,00,48,17.70
2018,07,24,00,49,17.70
2018,07,24,00,50,17.70
2018,07,24,00,51,17.70
2018,07,24,00,52,17.70
2018,07,24,00,53,17.70
2018,07,24,00,54,17.70
2018,07,24,00,55,17.70
2018,07,24,00,56,17.70
2018,07,24,00,57,17.70
2018,07,24,00,58,17.70
2018,07,24,00,59,17.60
2018,07,24,01,00,17.60
2018,07,24,01,01,17.60
2018,07,24,01,02,17.60
2018,07,24,01,03,17.60
2018,07,24,01,04,17.60
2018,07,24,01,05,17.50
2018,07,24,01,06,17.50
2018,07,24,01,07,17.50
2018,07,24,01,08,17.50
2018,07,24,01,09,17.50
2018,07,24,01,10,17.40
2018,07,24,01,11,17.40
2018,07,24,01,12,17.40
2018,07,24,01,13,17.40
2018,07,24,01,14,17.40
2018,07,24,01,15,17.40
2018,07,24,01,16,17.40
2018,07,24,01,17,17.40
2018,07,24,01,18,17.30
2018,07,24,01,19,17.30
2018,07,24,01,20,17.20
2018,07,24,01,21,17.20
2018,07,24,01,22,17.20
2018,07,24,01,23,17.10
2018,07,24,01,24,17.10
2018,07,24,01,25,17.10
2018,07,24,01,26,17.00
2018,07,24,01,27,17.00
2018,07,24,01,28,16.90
2018,07,24,01,29,16.90
2018,07,24,01,30,16.90
2018,07,24,01,31,16.90
2018,07,24,01,32,16.80
2018,07,24,01,33,16.80
2018,07,24,01,34,16.80
2018,07,24,01,35,16.70
2018,07,24,01,36,16.70
2018,07,24,01,37,16.70
2018,07,24,01,38,16.60
2018,07,24,01,39,16.60
2018,07,24,01,40,16.50
2018,07,24,01,41,16.50
2018,07,24,01,42,16.40
2018,07,24,01,43,16.40
2018,07,24,01,44,16.30
2018,07,24,01,45,16.30
2018,07,24,01,46,16.20
2018,07,24,01,47,16.20
2018,07,24,01,48,16.20
2018,07,24,01,49,16.10
2018,07,24,01,50,16.10
2018,07,24,01,51,16.10
2018,07,24,01,52,16.00
2018,07,24,01,53,16.00
2018,07,24,01,54,16.00
2018,07,24,01,55,15.90
2018,07,24,01,56,15.90
2018,07,24,01,57,15.90
2018,07,24,01,58,15.90
2018,07,24,01,59,15.90
2018,07,24,02,00,15.90
2018,07,24,02,01,15.90
2018,07,24,02,02,15.90
2018,07,24,02,03,15.90
2018,07,24,02,04,15.90
2018,07,24,02,05,15.90
2018,07,24,02,06,15.80
2018,07,24,02,07,15.80
2018,07,24,02,08,15.80
2018,07,24,02,09,15.80
2018,07,24,02,10,15.80
2018,07,24,02,11,15.80
2018,07,24,02,12,15.80
2018,07,24,02,13,15.80
2018,07,24,02,14,15.80
2018,07,24,02,15,15.80
2018,07,24,02,16,15.70
2018,07,24,02,17,15.70
2018,07,24,02,18,15.70
2018,07,24,02,19,15.70
2018,07,24,02,20,15.70
2018,07,24,02,21,15.60
2018,07,24,02,22,15.60
2018,07,24,02,23,15.60
2018,07,24,02,24,15.60
2018,07,24,02,25,15.60
2018,07,24,02,26,15.50
2018,07,24,02,27,15.50
2018,07,24,02,28,15.40
2018,07,24,02,29,15.40
2018,07,24,02,30,15.40
2018,07,24,02,31,15.40
2018,07,24,02,32,15.30
2018,07,24,02,33,15.30
2018,07,24,02,34,15.30
2018,07,24,02,35,15.30
2018,07,24,02,36,15.30
2018,07,24,02,37,15.30
2018,07,24,02,38,15.30
2018,07,24,02,39,15.30
2018,07,24,02,40,15.30
2018,07,24,02,41,15.30
2018,07,24,02,42,15.30
2018,07,24,02,43,15.30
2018,07,24,02,44,15.30
2018,07,24,02,45,15.30
2018,07,24,02,46,15.30
2018,07,24,02,47,15.30
2018,07,24,02,48,15.30
2018,07,24,02,49,15.30
2018,07,24,02,50,15.30
2018,07,24,02,51,15.30
2018,07,24,02,52,15.30
2018,07,24,02,53,15.20
2018,07,24,02,54,15.20
2018,07,24,02,55,15.20
2018,07,24,02,56,15.20
2018,07,24,02,57,15.20
2018,07,24,02,58,15.10
2018,07,24,02,59,15.10
2018,07,24,03,00,15.10
2018,07,24,03,01,15.10
2018,07,24,03,02,15.10
2018,07,24,03,03,15.10
2018,07,24,03,04,15.10
2018,07,24,03,05,15.10
2018,07,24,03,06,15.10
2018,07,24,03,07,15.10
2018,07,24,03,08,15.10
2018,07,24,03,09,15.10
2018,07,24,03,10,15.10
2018,07,24,03,11,15.10
2018,07,24,03,12,15.10
2018,07,24,03,13,15.10
2018,07,24,03,14,15.10
2018,07,24,03,15,15.10
2018,07,24,03,16,15.10
2018,07,24,03,17,15.10
2018,07,24,03,18,15.10
2018,07,24,03,19,15.10
2018,07,24,03,20,15.10
2018,07,24,03,21,15.10
2018,07,24,03,22,15.10
2018,07,24,03,23,15.10
2018,07,24,03,24,15.10
2018,07,24,03,25,15.10
2018,07,24,03,26,15.10
2018,07,24,03,27,15.00
2018,07,24,03,28,15.00
2018,07,24,03,29,15.00
2018,07,24,03,30,15.00
2018,07,24,03,31,15.00
2018,07,24,03,32,15.00
2018,07,24,03,33,15.00
2018,07,24,03,34,15.10
2018,07,24,03,35,15.10
2018,07,24,03,36,15.10
2018,07,24,03,37,15.10
2018,07,24,03,38,15.10
2018,07,24,03,39,15.10
2018,07,24,03,40,15.10
2018,07,24,03,41,15.10
2018,07,24,03,42,15.00
2018,07,24,03,43,15.00
2018,07,24,03,44,15.00
2018,07,24,03,45,15.00
2018,07,24,03,46,14.90
2018,07,24,03,47,14.90
2018,07,24,03,48,14.90
2018,07,24,03,49,14.90
2018,07,24,03,50,14.90
2018,07,24,03,51,14.90
2018,07,24,03,52,14.90
2018,07,24,03,53,14.90
2018,07,24,03,54,14.90
2018,07,24,03,55,14.80
2018,07,24,03,56,14.80
2018,07,24,03,57,14.80
2018,07,24,03,58,14.80
2018,07,24,03,59,14.80
2018,07,24,04,00,14.80
2018,07,24,04,01,14.80
2018,07,24,04,02,14.80
2018,07,24,04,03,14.80
2018,07,24,04,04,14.70
2018,07,24,04,05,14.70
2018,07,24,04,06,14.70
2018,07,24,04,07,14.70
2018,07,24,04,08,14.70
2018,07,24,04,09,14.70
2018,07,24,04,10,14.70
2018,07,24,04,11,14.60
2018,07,24,04,12,14.60
2018,07,24,04,13,14.60
2018,07,24,04,14,14.60
2018,07,24,04,15,14.60
2018,07,24,04,16,14.50
2018,07,24,04,17,14.50
2018,07,24,04,18,14.50
2018,07,24,04,19,14.50
2018,07,24,04,20,14.50
2018,07,24,04,21,14.50
2018,07,24,04,22,14.40
2018,07,24,04,23,14.40
2018,07,24,04,24,14.40
2018,07,24,04,25,14.40
2018,07,24,04,26,14.40
2018,07,24,04,27,14.40
2018,07,24,04,28,14.40
2018,07,24,04,29,14.30
2018,07,24,04,30,14.30
2018,07,24,04,31,14.30
2018,07,24,04,32,14.30
2018,07,24,04,33,14.30
2018,07,24,04,34,14.30
2018,07,24,04,35,14.30
2018,07,24,04,36,14.30
2018,07,24,04,37,14.30
2018,07,24,04,38,14.30
2018,07,24,04,39,14.30
2018,07,24,04,40,14.30
2018,07,24,04,41,14.30
2018,07,24,04,42,14.30
2018,07,24,04,43,14.30
2018,07,24,04,44,14.30
2018,07,24,04,45,14.30
2018,07,24,04,46,14.30
2018,07,24,04,47,14.30
2018,07,24,04,48,14.20
2018,07,24,04,49,14.20
2018,07,24,04,50,14.20
2018,07,24,04,51,14.20
2018,07,24,04,52,14.20
2018,07,24,04,53,14.20
2018,07,24,04,54,14.20
2018,07,24,04,55,14.30
2018,07,24,04,56,14.30
2018,07,24,04,57,14.30
2018,07,24,04,58,14.30
2018,07,24,04,59,14.30
2018,07,24,05,00,14.30
2018,07,24,05,01,14.30
2018,07,24,05,02,14.30
2018,07,24,05,03,14.30
2018,07,24,05,04,14.30
2018,07,24,05,05,14.30
2018,07,24,05,06,14.30
2018,07,24,05,07,14.20
2018,07,24,05,08,14.20
2018,07,24,05,09,14.20
2018,07,24,05,10,14.10
2018,07,24,05,11,14.10
2018,07,24,05,12,14.00
2018,07,24,05,13,13.90
2018,07,24,05,14,13.90
2018,07,24,05,15,13.80
2018,07,24,05,16,13.80
2018,07,24,05,17,13.80
2018,07,24,05,18,13.70
2018,07,24,05,19,13.70
2018,07,24,05,20,13.60
2018,07,24,05,21,13.60
2018,07,24,05,22,13.50
2018,07,24,05,23,13.50
2018,07,24,05,24,13.40
2018,07,24,05,25,13.40
2018,07,24,05,26,13.40
2018,07,24,05,27,13.40
2018,07,24,05,28,13.30
2018,07,24,05,29,13.30
2018,07,24,05,30,13.30
2018,07,24,05,31,13.30
2018,07,24,05,32,13.30
2018,07,24,05,33,13.30
2018,07,24,05,34,13.30
2018,07,24,05,35,13.30
2018,07,24,05,36,13.20
2018,07,24,05,37,13.20
2018,07,24,05,38,13.20
2018,07,24,05,39,13.20
2018,07,24,05,40,13.20
2018,07,24,05,41,13.10
2018,07,24,05,42,13.10
2018,07,24,05,43,13.10
2018,07,24,05,44,13.10
2018,07,24,05,45,13.10
2018,07,24,05,46,13.00
2018,07,24,05,47,13.00
2018,07,24,05,48,13.00
2018,07,24,05,49,13.00
2018,07,24,05,50,13.00
2018,07,24,05,51,12.90
2018,07,24,05,52,12.90
2018,07,24,05,53,12.90
2018,07,24,05,54,12.90
2018,07,24,05,55,13.00
2018,07,24,05,56,13.00
2018,07,24,05,57,13.00
2018,07,24,05,58,13.00
2018,07,24,05,59,13.00
2018,07,24,06,00,13.00
2018,07,24,06,01,12.90
2018,07,24,06,02,12.90
2018,07,24,06,03,12.90
2018,07,24,06,04,12.90
2018,07,24,06,05,12.90
2018,07,24,06,06,12.90
2018,07,24,06,07,12.90
2018,07,24,06,08,12.90
2018,07,24,06,09,12.90
2018,07,24,06,10,12.90
2018,07,24,06,11,12.90
2018,07,24,06,12,12.90
2018,07,24,06,13,12.90
2018,07,24,06,14,12.90
2018,07,24,06,15,12.90
2018,07,24,06,16,12.90
2018,07,24,06,17,12.90
2018,07,24,06,18,12.90
2018,07,24,06,19,12.90
2018,07,24,06,20,12.90
2018,07,24,06,21,12.90
2018,07,24,06,22,12.90
2018,07,24,06,23,12.90
2018,07,24,06,24,12.90
2018,07,24,06,25,12.90
2018,07,24,06,26,13.00
2018,07,24,06,27,13.00
2018,07,24,06,28,13.00
2018,07,24,06,29,13.00
2018,07,24,06,30,13.00
2018,07,24,06,31,13.10
2018,07,24,06,32,13.10
2018,07,24,06,33,13.10
2018,07,24,06,34,13.10
2018,07,24,06,35,13.10
2018,07,24,06,36,13.10
2018,07,24,06,37,13.20
2018,07,24,06,38,13.20
2018,07,24,06,39,13.20
2018,07,24,06,40,13.20
2018,07,24,06,41,13.20
2018,07,24,06,42,13.20
2018,07,24,06,43,13.30
2018,07,24,06,44,13.30
2018,07,24,06,45,13.30
2018,07,24,06,46,13.40
2018,07,24,06,47,13.40
2018,07,24,06,48,13.50
2018,07,24,06,49,13.50
2018,07,24,06,50,13.60
2018,07,24,06,51,13.60
2018,07,24,06,52,13.60
2018,07,24,06,53,13.60
2018,07,24,06,54,13.60
2018,07,24,06,55,13.70
2018,07,24,06,56,13.70
2018,07,24,06,57,13.70
2018,07,24,06,58,13.70
2018,07,24,06,59,13.70
2018,07,24,07,00,13.80
2018,07,24,07,01,13.80
2018,07,24,07,02,13.80
2018,07,24,07,03,13.80
2018,07,24,07,04,13.90
2018,07,24,07,05,13.90
2018,07,24,07,06,13.90
2018,07,24,07,07,14.00
2018,07,24,07,08,14.00
2018,07,24,07,09,14.10
2018,07,24,07,10,14.10
2018,07,24,07,11,14.20
2018,07,24,07,12,14.20
2018,07,24,07,13,14.20
2018,07,24,07,14,14.20
2018,07,24,07,15,14.30
2018,07,24,07,16,14.30
2018,07,24,07,17,14.40
2018,07,24,07,18,14.40
2018,07,24,07,19,14.40
2018,07,24,07,20,14.50
2018,07,24,07,21,14.50
2018,07,24,07,22,14.60
2018,07,24,07,23,14.60
2018,07,24,07,24,14.70
2018,07,24,07,25,14.70
2018,07,24,07,26,14.80
2018,07,24,07,27,14.80
2018,07,24,07,28,14.80
2018,07,24,07,29,14.90
2018,07,24,07,30,14.90
2018,07,24,07,31,15.00
2018,07,24,07,32,15.00
2018,07,24,07,33,15.10
2018,07,24,07,34,15.20
2018,07,24,07,35,15.20
2018,07,24,07,36,15.30
2018,07,24,07,37,15.30
2018,07,24,07,38,15.40
2018,07,24,07,39,15.40
2018,07,24,07,40,15.30
2018,07,24,07,41,15.30
2018,07,24,07,42,15.30
2018,07,24,07,43,15.20
2018,07,24,07,44,15.20
2018,07,24,07,45,15.20
2018,07,24,07,46,15.30
2018,07,24,07,47,15.30
2018,07,24,07,48,15.30
2018,07,24,07,49,15.30
2018,07,24,07,50,15.30
2018,07,24,07,51,15.30
2018,07,24,07,52,15.30
2018,07,24,07,53,15.30
2018,07,24,07,54,15.30
2018,07,24,07,55,15.30
2018,07,24,07,56,15.30
2018,07,24,07,57,15.30
2018,07,24,07,58,15.30
2018,07,24,07,59,15.30
2018,07,24,08,00,15.30
2018,07,24,08,01,15.30
2018,07,24,08,02,15.30
2018,07,24,08,03,15.30
2018,07,24,08,04,15.30
2018,07,24,08,05,15.30
2018,07,24,08,06,15.30
2018,07,24,08,07,15.30
2018,07,24,08,08,15.30
2018,07,24,08,09,15.30
2018,07,24,08,10,15.30
2018,07,24,08,11,15.30
2018,07,24,08,12,15.30
2018,07,24,08,13,15.20
2018,07,24,08,14,15.30
2018,07,24,08,15,15.30
2018,07,24,08,16,15.30
2018,07,24,08,17,15.30
2018,07,24,08,18,15.30
2018,07,24,08,19,15.30
2018,07,24,08,20,15.30
2018,07,24,08,21,15.30
2018,07,24,08,22,15.30
2018,07,24,08,23,15.30
2018,07,24,08,24,15.30
2018,07,24,08,25,15.30
2018,07,24,08,26,15.30
2018,07,24,08,27,15.30
2018,07,24,08,28,15.40
2018,07,24,08,29,15.40
2018,07,24,08,30,15.50
2018,07,24,08,31,15.50
2018,07,24,08,32,15.60
2018,07,24,08,33,15.70
2018,07,24,08,34,15.80
2018,07,24,08,35,15.80
2018,07,24,08,36,15.90
2018,07,24,08,37,15.90
2018,07,24,08,38,16.00
2018,07,24,08,39,16.00
2018,07,24,08,40,16.00
2018,07,24,08,41,16.00
2018,07,24,08,42,16.00
2018,07,24,08,43,16.00
2018,07,24,08,44,15.90
2018,07,24,08,45,15.90
2018,07,24,08,46,15.90
2018,07,24,08,47,15.90
2018,07,24,08,48,16.00
2018,07,24,08,49,16.10
2018,07,24,08,50,16.10
2018,07,24,08,51,16.20
2018,07,24,08,52,16.20
2018,07,24,08,53,16.30
2018,07,24,08,54,16.30
2018,07,24,08,55,16.40
2018,07,24,08,56,16.50
2018,07,24,08,57,16.50
2018,07,24,08,58,16.60
2018,07,24,08,59,16.60
2018,07,24,09,00,16.70
2018,07,24,09,01,16.70
2018,07,24,09,02,16.80
2018,07,24,09,03,16.90
2018,07,24,09,04,17.00
2018,07,24,09,05,17.20
2018,07,24,09,06,17.30
2018,07,24,09,07,17.30
2018,07,24,09,08,17.30
2018,07,24,09,09,17.30
2018,07,24,09,10,17.30
2018,07,24,09,11,17.30
2018,07,24,09,12,17.20
2018,07,24,09,13,17.10
2018,07,24,09,14,17.00
2018,07,24,09,15,17.00
2018,07,24,09,16,16.90
2018,07,24,09,17,16.90
2018,07,24,09,18,16.90
2018,07,24,09,19,16.80
2018,07,24,09,20,16.80
2018,07,24,09,21,16.80
2018,07,24,09,22,16.70
2018,07,24,09,23,16.70
2018,07,24,09,24,16.70
2018,07,24,09,25,16.60
2018,07,24,09,26,16.60
2018,07,24,09,27,16.60
2018,07,24,09,28,16.60
2018,07,24,09,29,16.60
2018,07,24,09,30,16.60
2018,07,24,09,31,16.70
2018,07,24,09,32,16.70
2018,07,24,09,33,16.70
2018,07,24,09,34,16.80
2018,07,24,09,35,16.80
2018,07,24,09,36,16.90
2018,07,24,09,37,17.00
2018,07,24,09,38,17.10
2018,07,24,09,39,17.10
2018,07,24,09,40,17.10
2018,07,24,09,41,17.10
2018,07,24,09,42,17.10
2018,07,24,09,43,17.10
2018,07,24,09,44,17.10
2018,07,24,09,45,17.10
2018,07,24,09,46,17.20
2018,07,24,09,47,17.20
2018,07,24,09,48,17.20
2018,07,24,09,49,17.30
2018,07,24,09,50,17.30
2018,07,24,09,51,17.20
2018,07,24,09,52,17.20
2018,07,24,09,53,17.20
2018,07,24,09,54,17.20
2018,07,24,09,55,17.30
2018,07,24,09,56,17.40
2018,07,24,09,57,17.40
2018,07,24,09,58,17.40
2018,07,24,09,59,17.40
2018,07,24,10,00,17.40
2018,07,24,10,01,17.40
2018,07,24,10,02,17.30
2018,07,24,10,03,17.30
2018,07,24,10,04,17.30
2018,07,24,10,05,17.20
2018,07,24,10,06,17.20
2018,07,24,10,07,17.20
2018,07,24,10,08,17.20
2018,07,24,10,09,17.30
2018,07,24,10,10,17.40
2018,07,24,10,11,17.40
2018,07,24,10,12,17.60
2018,07,24,10,13,17.70
2018,07,24,10,14,17.70
2018,07,24,10,15,17.70
2018,07,24,10,16,17.70
2018,07,24,10,17,17.70
2018,07,24,10,18,17.60
2018,07,24,10,19,17.60
2018,07,24,10,20,17.60
2018,07,24,10,21,17.60
2018,07,24,10,22,17.40
2018,07,24,10,23,17.30
2018,07,24,10,24,17.20
2018,07,24,10,25,17.10
2018,07,24,10,26,16.90
2018,07,24,10,27,16.70
2018,07,24,10,28,16.60
2018,07,24,10,29,16.60
2018,07,24,10,30,16.60
2018,07,24,10,31,16.70
2018,07,24,10,32,16.70
2018,07,24,10,33,16.70
2018,07,24,10,34,16.70
2018,07,24,10,35,16.70
2018,07,24,10,36,16.80
2018,07,24,10,37,16.80
2018,07,24,10,38,16.80
2018,07,24,10,39,16.90
2018,07,24,10,40,16.90
2018,07,24,10,41,17.10
2018,07,24,10,42,17.20
2018,07,24,10,43,17.20
2018,07,24,10,44,17.20
2018,07,24,10,45,17.30
2018,07,24,10,46,17.20
2018,07,24,10,47,17.20
2018,07,24,10,48,17.20
2018,07,24,10,49,17.20
2018,07,24,10,50,17.20
2018,07,24,10,51,17.10
2018,07,24,10,52,17.00
2018,07,24,10,53,16.80
2018,07,24,10,54,16.60
2018,07,24,10,55,16.40
2018,07,24,10,56,16.30
2018,07,24,10,57,16.30
2018,07,24,10,58,16.40
2018,07,24,10,59,16.40
2018,07,24,11,00,16.50
2018,07,24,11,01,16.60
2018,07,24,11,02,16.70
2018,07,24,11,03,16.80
2018,07,24,11,04,16.90
2018,07,24,11,05,17.00
2018,07,24,11,06,17.10
2018,07,24,11,07,17.20
2018,07,24,11,08,17.30
2018,07,24,11,09,17.40
2018,07,24,11,10,17.50
2018,07,24,11,11,17.60
2018,07,24,11,12,17.70
2018,07,24,11,13,17.80
2018,07,24,11,14,17.90
2018,07,24,11,15,17.90
2018,07,24,11,16,17.90
2018,07,24,11,17,18.00
2018,07,24,11,18,18.10
2018,07,24,11,19,18.10
2018,07,24,11,20,18.10
2018,07,24,11,21,18.00
2018,07,24,11,22,18.10
2018,07,24,11,23,18.10
2018,07,24,11,24,18.10
2018,07,24,11,25,18.10
2018,07,24,11,26,18.00
2018,07,24,11,27,18.00
2018,07,24,11,28,18.10
2018,07,24,11,29,18.10
2018,07,24,11,30,18.10
2018,07,24,11,31,18.00
2018,07,24,11,32,18.00
2018,07,24,11,33,18.10
2018,07,24,11,34,18.10
2018,07,24,11,35,18.10
2018,07,24,11,36,18.10
2018,07,24,11,37,18.10
2018,07,24,11,38,18.20
2018,07,24,11,39,18.30
2018,07,24,11,40,18.40
2018,07,24,11,41,18.40
2018,07,24,11,42,18.50
2018,07,24,11,43,18.50
2018,07,24,11,44,18.50
2018,07,24,11,45,18.40
2018,07,24,11,46,18.40
2018,07,24,11,47,18.30
2018,07,24,11,48,18.30
2018,07,24,11,49,18.20
2018,07,24,11,50,18.10
2018,07,24,11,51,18.10
2018,07,24,11,52,18.10
2018,07,24,11,53,18.20
2018,07,24,11,54,18.20
2018,07,24,11,55,18.20
2018,07,24,11,56,18.40
2018,07,24,11,57,18.60
2018,07,24,11,58,18.70
2018,07,24,11,59,18.70
2018,07,24,12,00,18.60
2018,07,24,12,01,18.70
2018,07,24,12,02,18.70
2018,07,24,12,03,18.80
2018,07,24,12,04,18.80
2018,07,24,12,05,18.80
2018,07,24,12,06,18.90
2018,07,24,12,07,19.00
2018,07,24,12,08,19.10
2018,07,24,12,09,19.10
2018,07,24,12,10,19.10
2018,07,24,12,11,19.20
2018,07,24,12,12,19.20
2018,07,24,12,13,19.20
2018,07,24,12,14,19.20
2018,07,24,12,15,19.30
2018,07,24,12,16,19.40
2018,07,24,12,17,19.60
2018,07,24,12,18,19.70
2018,07,24,12,19,19.80
2018,07,24,12,20,19.90
2018,07,24,12,21,20.00
2018,07,24,12,22,20.10
2018,07,24,12,23,20.20
2018,07,24,12,24,20.30
2018,07,24,12,25,20.20
2018,07,24,12,26,20.20
2018,07,24,12,27,20.20
2018,07,24,12,28,20.10
2018,07,24,12,29,20.10
2018,07,24,12,30,20.10
2018,07,24,12,31,20.10
2018,07,24,12,32,20.10
2018,07,24,12,33,20.10
2018,07,24,12,34,20.00
2018,07,24,12,35,19.90
2018,07,24,12,36,19.80
2018,07,24,12,37,19.70
2018,07,24,12,38,19.70
2018,07,24,12,39,19.70
2018,07,24,12,40,19.70
2018,07,24,12,41,19.80
2018,07,24,12,42,19.90
2018,07,24,12,43,20.00
2018,07,24,12,44,20.00
2018,07,24,12,45,20.10
2018,07,24,12,46,20.00
2018,07,24,12,47,20.00
2018,07,24,12,48,20.00
2018,07,24,12,49,20.10
2018,07,24,12,50,20.20
2018,07,24,12,51,20.20
2018,07,24,12,52,20.40
2018,07,24,12,53,20.50
2018,07,24,12,54,20.60
2018,07,24,12,55,20.50
2018,07,24,12,56,20.50
2018,07,24,12,57,20.40
2018,07,24,12,58,20.30
2018,07,24,12,59,20.30
2018,07,24,13,00,20.30
2018,07,24,13,01,20.30
2018,07,24,13,02,20.30
2018,07,24,13,03,20.30
2018,07,24,13,04,20.30
2018,07,24,13,05,20.30
2018,07,24,13,06,20.30
2018,07,24,13,07,20.30
2018,07,24,13,08,20.40
2018,07,24,13,09,20.50
2018,07,24,13,10,20.60
2018,07,24,13,11,20.60
2018,07,24,13,12,20.60
2018,07,24,13,13,20.70
2018,07,24,13,14,20.80
2018,07,24,13,15,21.00
2018,07,24,13,16,21.10
2018,07,24,13,17,21.10
2018,07,24,13,18,21.10
2018,07,24,13,19,21.00
2018,07,24,13,20,20.90
2018,07,24,13,21,20.90
2018,07,24,13,22,20.80
2018,07,24,13,23,20.90
2018,07,24,13,24,21.00
2018,07,24,13,25,21.10
2018,07,24,13,26,21.20
2018,07,24,13,27,21.20
2018,07,24,13,28,21.20
2018,07,24,13,29,21.30
2018,07,24,13,30,21.30
2018,07,24,13,31,21.30
2018,07,24,13,32,21.30
2018,07,24,13,33,21.30
2018,07,24,13,34,21.30
2018,07,24,13,35,21.30
2018,07,24,13,36,21.40
2018,07,24,13,37,21.50
2018,07,24,13,38,21.60
2018,07,24,13,39,21.70
2018,07,24,13,40,21.70
2018,07,24,13,41,21.70
2018,07,24,13,42,21.70
2018,07,24,13,43,21.70
2018,07,24,13,44,21.70
2018,07,24,13,45,21.70
2018,07,24,13,46,21.70
2018,07,24,13,47,21.70
2018,07,24,13,48,21.70
2018,07,24,13,49,21.70
2018,07,24,13,50,21.70
2018,07,24,13,51,21.80
2018,07,24,13,52,21.90
2018,07,24,13,53,22.10
2018,07,24,13,54,22.10
2018,07,24,13,55,22.20
2018,07,24,13,56,22.20
2018,07,24,13,57,22.30
2018,07,24,13,58,22.50
2018,07,24,13,59,22.60
2018,07,24,14,00,22.60
2018,07,24,14,01,22.70
2018,07,24,14,02,22.70
2018,07,24,14,03,22.60
2018,07,24,14,04,22.50
2018,07,24,14,05,22.50
2018,07,24,14,06,22.50
2018,07,24,14,07,22.50
2018,07,24,14,08,22.50
2018,07,24,14,09,22.60
2018,07,24,14,10,22.70
2018,07,24,14,11,22.70
2018,07,24,14,12,22.80
2018,07,24,14,13,22.90
2018,07,24,14,14,23.00
2018,07,24,14,15,23.10
2018,07,24,14,16,23.10
2018,07,24,14,17,23.00
2018,07,24,14,18,23.00
2018,07,24,14,19,22.90
2018,07,24,14,20,22.90
2018,07,24,14,21,22.90
2018,07,24,14,22,22.90
2018,07,24,14,23,23.00
2018,07,24,14,24,23.00
2018,07,24,14,25,23.10
2018,07,24,14,26,23.20
2018,07,24,14,27,23.30
2018,07,24,14,28,23.30
2018,07,24,14,29,23.30
2018,07,24,14,30,23.30
2018,07,24,14,31,23.40
2018,07,24,14,32,23.50
2018,07,24,14,33,23.60
2018,07,24,14,34,23.60
2018,07,24,14,35,23.50
2018,07,24,14,36,23.40
2018,07,24,14,37,23.40
2018,07,24,14,38,23.50
2018,07,24,14,39,23.60
2018,07,24,14,40,23.60
2018,07,24,14,41,23.60
2018,07,24,14,42,23.60
2018,07,24,14,43,23.60
2018,07,24,14,44,23.50
2018,07,24,14,45,23.40
2018,07,24,14,46,23.40
2018,07,24,14,47,23.30
2018,07,24,14,48,23.30
2018,07,24,14,49,23.20
2018,07,24,14,50,23.20
2018,07,24,14,51,23.30
2018,07,24,14,52,23.30
2018,07,24,14,53,23.30
2018,07,24,14,54,23.30
2018,07,24,14,55,23.40
2018,07,24,14,56,23.40
2018,07,24,14,57,23.40
2018,07,24,14,58,23.40
2018,07,24,14,59,23.40
2018,07,24,15,00,23.40
2018,07,24,15,01,23.50
2018,07,24,15,02,23.60
2018,07,24,15,03,23.70
2018,07,24,15,04,23.70
2018,07,24,15,05,23.70
2018,07,24,15,06,23.70
2018,07,24,15,07,23.70
2018,07,24,15,08,23.60
2018,07,24,15,09,23.70
2018,07,24,15,10,23.70
2018,07,24,15,11,23.80
2018,07,24,15,12,23.90
2018,07,24,15,13,24.00
2018,07,24,15,14,24.20
2018,07,24,15,15,24.20
2018,07,24,15,16,24.20
2018,07,24,15,17,24.10
2018,07,24,15,18,24.10
2018,07,24,15,19,24.20
2018,07,24,15,20,24.30
2018,07,24,15,21,24.30
2018,07,24,15,22,24.30
2018,07,24,15,23,24.40
2018,07,24,15,24,24.40
2018,07,24,15,25,24.40
2018,07,24,15,26,24.40
2018,07,24,15,27,24.30
2018,07,24,15,28,24.30
2018,07,24,15,29,24.30
2018,07,24,15,30,24.30
2018,07,24,15,31,24.30
2018,07,24,15,32,24.40
2018,07,24,15,33,24.40
2018,07,24,15,34,24.50
2018,07,24,15,35,24.60
2018,07,24,15,36,24.70
2018,07,24,15,37,24.70
2018,07,24,15,38,24.70
2018,07,24,15,39,24.70
2018,07,24,15,40,24.70
2018,07,24,15,41,24.60
2018,07,24,15,42,24.60
2018,07,24,15,43,24.50
2018,07,24,15,44,24.30
2018,07,24,15,45,24.30
2018,07,24,15,46,24.20
2018,07,24,15,47,24.20
2018,07,24,15,48,24.20
2018,07,24,15,49,24.20
2018,07,24,15,50,24.10
2018,07,24,15,51,24.00
2018,07,24,15,52,23.90
2018,07,24,15,53,23.80
2018,07,24,15,54,23.80
2018,07,24,15,55,23.80
2018,07,24,15,56,23.80
2018,07,24,15,57,23.80
2018,07,24,15,58,23.80
2018,07,24,15,59,23.80
2018,07,24,16,00,23.90
2018,07,24,16,01,23.90
2018,07,24,16,02,24.00
2018,07,24,16,03,24.10
2018,07,24,16,04,24.20
2018,07,24,16,05,24.30
2018,07,24,16,06,24.40
2018,07,24,16,07,24.50
2018,07,24,16,08,24.60
2018,07,24,16,09,24.70
2018,07,24,16,10,24.80
2018,07,24,16,11,24.90
2018,07,24,16,12,25.00
2018,07,24,16,13,25.00
2018,07,24,16,14,25.10
2018,07,24,16,15,25.20
2018,07,24,16,16,25.30
2018,07,24,16,17,25.40
2018,07,24,16,18,25.40
2018,07,24,16,19,25.40
2018,07,24,16,20,25.40
2018,07,24,16,21,25.40
2018,07,24,16,22,25.40
2018,07,24,16,23,25.40
2018,07,24,16,24,25.40
2018,07,24,16,25,25.40
2018,07,24,16,26,25.40
2018,07,24,16,27,25.30
2018,07,24,16,28,25.20
2018,07,24,16,29,25.10
2018,07,24,16,30,25.10
2018,07,24,16,31,25.00
2018,07,24,16,32,25.00
2018,07,24,16,33,24.90
2018,07,24,16,34,24.90
2018,07,24,16,35,24.90
2018,07,24,16,36,24.80
2018,07,24,16,37,24.80
2018,07,24,16,38,24.70
2018,07,24,16,39,24.70
2018,07,24,16,40,24.70
2018,07,24,16,41,24.60
2018,07,24,16,42,24.60
2018,07,24,16,43,24.50
2018,07,24,16,44,24.40
2018,07,24,16,45,24.30
2018,07,24,16,46,24.30
2018,07,24,16,47,24.30
2018,07,24,16,48,24.30
2018,07,24,16,49,24.30
2018,07,24,16,50,24.20
2018,07,24,16,51,24.20
2018,07,24,16,52,24.10
2018,07,24,16,53,24.10
2018,07,24,16,54,24.00
2018,07,24,16,55,24.00
2018,07,24,16,56,23.90
2018,07,24,16,57,23.80
2018,07,24,16,58,23.70
2018,07,24,16,59,23.70
2018,07,24,17,00,23.60
2018,07,24,17,01,23.60
2018,07,24,17,02,23.60
2018,07,24,17,03,23.60
2018,07,24,17,04,23.50
2018,07,24,17,05,23.40
2018,07,24,17,06,23.40
2018,07,24,17,07,23.40
2018,07,24,17,08,23.40
2018,07,24,17,09,23.50
2018,07,24,17,10,23.50
2018,07,24,17,11,23.40
2018,07,24,17,12,23.40
2018,07,24,17,13,23.30
2018,07,24,17,14,23.40
2018,07,24,17,15,23.40
2018,07,24,17,16,23.50
2018,07,24,17,17,23.50
2018,07,24,17,18,23.50
2018,07,24,17,19,23.50